Terminal Aerodrome Forecast
Issued by NWS

Home | Current Version | Previous Version | Text Only | Print | Product List | Glossary On
Versions: 1 2 3 4 5 6 7 8 9 10 11 12
001
FTUS45 KRIW 112331
TAFRKS
TAF
KRKS 112331Z 1200/1224 24014KT P6SM SCT250
     FM120200 23008KT P6SM FEW100 SCT250=

USA.gov is the U.S. government's official web portal to all federal, state and local government web resources and services.